Overview Statistics Trail Chart Weather Telemetry Raw packets
 

This is the latest recevied weather packets stored in our database for station/object IW1CBG-3. If no packets are shown the sender has not sent any weather packets the latest 10 day(s).

<< 3 4 5 6 7 8 9 >>
Time Temp. Humidity Pressure Rain* Wind** Luminosity Snow
1788611177 26.67° C 75% 1026.8 hPa 0 mm - - -
1788610577 26.67° C 74% 1026.8 hPa 0 mm - - -
1788609979 26.67° C 73% 1027 hPa 0 mm - - -
1788609378 26.67° C 73% 1027 hPa 0 mm - - -
1788608778 26.67° C 71% 1027 hPa 0 mm - - -
1788608178 26.67° C 72% 1027 hPa 0 mm - - -
1788607578 26.67° C 70% 1026.9 hPa 0 mm - - -
1788606978 26.67° C 71% 1026.9 hPa 0 mm - - -
1788606379 26.67° C 72% 1027.4 hPa 0 mm - - -
1788605778 26.11° C 71% 1027.1 hPa 0 mm - - -
1788605179 26.11° C 72% 1027.3 hPa 0 mm - - -
1788604578 25° C 74% 1027.5 hPa 0 mm - - -
1788603978 25.56° C 74% 1027.5 hPa 0 mm - - -
1788603378 25° C 74% 1027.8 hPa 0 mm - - -
1788602777 25° C 76% 1028.2 hPa 0 mm - - -
1788602177 24.44° C 76% 1028.3 hPa 0 mm - - -
1788601578 23.89° C 78% 1028.4 hPa 0 mm - - -
1788600978 23.89° C 79% 1028.6 hPa 0 mm - - -
1788600378 23.33° C 80% 1028.5 hPa 0 mm - - -
1788599778 23.33° C 81% 1028.4 hPa 0 mm - - -
1788599178 23.33° C 82% 1028.5 hPa 0 mm - - -
1788598578 22.78° C 83% 1028.4 hPa 0 mm - - -
1788597978 22.78° C 83% 1028.5 hPa 0 mm - - -
1788597378 22.78° C 83% 1028.5 hPa 0 mm - - -
1788596779 22.78° C 83% 1028.2 hPa 0 mm - - -

* Rain latest hour (hover to see other rain measurements)
** Current wind speed in m/s (hover to see current wind gust speed)